PDT,Max TemperatureF,Mean TemperatureF,Min TemperatureF,Max Dew PointF,MeanDew PointF,Min DewpointF,Max Humidity, Mean Humidity, Min Humidity, Max Sea Level PressureIn, Mean Sea Level PressureIn, Min Sea Level PressureIn, Max VisibilityMiles, Mean VisibilityMiles, Min VisibilityMiles, Max Wind SpeedMPH, Mean Wind SpeedMPH, Max Gust SpeedMPH,PrecipitationIn, CloudCover, Events, WindDirDegrees
2013-4-1,66,49,31,42,38,32,100,69,37,30.12,30.03,29.94,10,10,8,23,7,29,0.00,2,,308
2013-4-2,67,49,31,38,35,30,96,65,34,30.19,30.14,30.09,10,10,10,20,6,24,0.00,1,,196
2013-4-3,70,49,28,37,31,25,92,56,20,30.18,30.07,29.93,10,10,10,13,5,15,0.00,1,,222
2013-4-4,68,55,42,42,37,34,86,58,30,29.91,29.81,29.68,10,10,8,30,8,39,0.01,6,Rain,212
2013-4-5,59,50,40,37,35,31,76,56,36,29.96,29.92,29.87,10,10,10,24,12,30,T,5,,198
2013-4-6,55,48,41,37,35,28,76,59,41,29.96,29.90,29.77,10,10,10,22,8,30,T,7,Rain,200
2013-4-7,52,43,34,35,28,18,70,49,27,29.85,29.75,29.63,10,10,10,32,14,47,T,3,,266
2013-4-8,51,37,23,27,24,22,84,60,36,30.26,30.07,29.87,10,10,10,17,8,24,0.00,5,,316
2013-4-9,60,40,20,32,24,16,92,56,19,30.35,30.29,30.25,10,10,10,14,5,18,0.00,2,,254
2013-4-10,62,45,28,42,33,26,85,61,36,30.24,30.16,30.07,10,10,10,36,10,46,0.01,1,,302
2013-4-11,55,37,18,27,23,16,100,65,29,30.26,30.20,30.14,10,10,10,16,4,22,0.00,0,,13
2013-4-12,63,43,23,32,23,16,88,52,16,30.14,29.93,29.74,10,10,10,23,7,29,0.00,3,,36
2013-4-13,48,39,30,30,22,14,64,46,28,30.04,29.90,29.73,10,10,10,31,18,39,0.00,0,,300
2013-4-14,46,34,22,31,22,17,81,59,37,30.04,29.94,29.86,10,9,2,16,4,22,T,5,Snow,295
2013-4-15,41,35,29,33,29,27,100,82,64,30.12,29.92,29.84,10,6,1,23,5,31,0.06,7,Snow,326
2013-4-16,48,37,25,33,26,17,92,62,31,30.37,30.21,30.11,10,8,1,23,8,30,T,7,Snow,333
2013-4-17,52,33,14,27,20,12,92,57,21,30.45,30.42,30.38,10,10,10,20,5,23,0.00,2,,279
2013-4-18,62,46,29,37,31,24,78,57,36,30.41,30.36,30.28,10,10,10,17,5,21,T,3,,274
2013-4-19,60,48,36,43,37,33,89,65,40,30.27,30.17,30.10,10,10,4,35,11,45,0.02,5,Rain,280
2013-4-20,60,45,29,32,29,27,92,60,28,30.27,30.22,30.19,10,10,10,17,7,23,0.00,0,,280
2013-4-21,61,43,25,37,32,24,92,65,37,30.22,30.19,30.15,10,10,10,26,10,32,0.00,3,,261
2013-4-22,57,42,26,32,22,13,89,55,20,30.42,30.35,30.22,10,10,10,18,7,25,0.00,3,,358
2013-4-23,65,42,18,16,8,-15,68,36,4,30.42,30.26,30.12,10,10,8,23,6,29,0.00,1,,65
2013-4-24,70,46,21,19,14,11,62,37,11,30.31,30.19,30.04,10,10,6,15,4,18,0.00,0,,99
2013-4-25,74,50,26,31,23,15,58,38,18,30.14,30.05,30.02,10,10,10,21,7,26,0.00,0,,338
2013-4-26,79,54,29,34,27,16,75,42,9,30.24,30.19,30.14,10,10,10,18,5,25,0.00,0,,317
2013-4-27,75,54,33,33,27,18,70,42,14,30.25,30.19,30.14,10,10,10,25,8,32,0.00,0,,318
2013-4-28,65,54,42,36,29,26,54,39,24,30.18,30.13,30.06,10,10,10,24,11,30,0.00,2,,282
2013-4-29,59,47,35,38,29,21,59,43,27,30.07,30.01,29.96,10,10,10,33,16,44,0.00,3,,284
2013-4-30,53,35,17,22,19,15,92,58,24,30.41,30.24,30.08,10,10,10,21,7,33,0.00,0,,356